IQ1LY-3 Weather Reports


time (UTC)temp
F
wind
direction
speed
knots
gust
knots
rain 1hr
in
rain 24hr
in
rain mn
in
humidity
%
barometer
mb
20260506103503 68 184 5.2 6.1 0.00 0.00 0.00 69 1007.5
20260506102502 68 180 4.3 7.0 0.00 0.00 0.00 70 1007.5
20260506101501 68 238 6.1 7.0 0.00 0.00 0.00 69 1007.5
20260506100500 67 158 0.0 6.1 0.00 0.00 0.00 68 1007.8
20260506095459 67 211 8.7 10.4 0.00 0.00 0.00 68 1007.8
20260506094459 67 161 5.2 7.0 0.00 0.00 0.00 68 1007.8
20260506093457 68 98 1.7 5.2 0.00 0.00 0.00 68 1007.8
20260506092456 68 113 4.3 5.2 0.00 0.00 0.00 69 1007.8
20260506091455 68 270 1.7 6.1 0.00 0.00 0.00 69 1007.8
20260506090454 68 203 2.6 2.6 0.00 0.00 0.00 70 1007.8
20260506085454 67 113 0.9 0.9 0.00 0.00 0.00 72 1007.8
20260506084453 67 225 0.0 3.5 0.00 0.00 0.00 74 1007.8
20260506083421 66 119 1.7 3.5 0.00 0.00 0.00 75 1007.8
20260506082420 65 248 1.7 1.7 0.00 0.00 0.00 77 1007.8
20260506081419 64 158 0.0 5.2 0.00 0.00 0.00 77 1007.8
20260506080348 64 158 5.2 5.2 0.00 0.00 0.00 78 1007.8
20260506073314 64 203 1.7 1.7 0.00 0.00 0.00 84 1007.8
20260506072313 63 248 0.0 0.0 0.00 0.00 0.00 86 1007.5
20260506071313 61 225 0.0 1.7 0.00 0.00 0.00 88 1007.5
20260506070312 60 270 0.0 0.9 0.00 0.00 0.00 90 1007.5
20260506062308 57 270 2.6 2.6 0.00 0.00 0.00 92 1007.1
20260506061236 56 270 0.0 2.6 0.00 0.00 0.00 92 1006.8
20260506060235 55 248 0.0 0.0 0.00 0.00 0.00 92 1006.8
20260506051059 55 203 0.0 0.0 0.00 0.00 0.00 92 1007.5
20260506045058 55 45 0.0 0.0 0.00 0.00 0.00 92 1007.8
20260506044057 56 293 0.0 0.0 0.00 0.00 0.00 92 1007.8
20260506043056 56 293 0.0 2.6 0.00 0.00 0.00 92 1007.8
20260506042055 56 270 0.0 1.7 0.00 0.00 0.00 92 1007.8
20260506041054 55 248 0.0 0.0 0.00 0.00 0.00 92 1007.8
20260506040022 55 293 0.0 0.0 0.00 0.00 0.00 92 1007.8
20260506035021 55 270 0.0 0.0 0.00 0.00 0.00 91 1007.8
20260506034020 56 270 0.0 0.0 0.00 0.00 0.00 91 1007.8
20260506033019 55 270 0.0 0.0 0.00 0.00 0.00 91 1007.8
20260506032018 55 270 0.0 0.0 0.00 0.00 0.00 91 1007.8
20260506030946 55 270 0.0 0.0 0.00 0.00 0.00 91 1008.1
20260506025946 55 293 0.0 0.9 0.00 0.00 0.00 91 1008.1
20260506024944 55 270 0.9 0.9 0.00 0.00 0.00 91 1007.8
20260506023944 55 248 0.0 0.0 0.00 0.00 0.00 91 1007.8
20260506022912 55 23 0.0 0.0 0.00 0.00 0.00 91 1008.1
20260506021810 56 248 0.0 0.0 0.00 0.00 0.00 91 1008.5
20260506020809 56 270 0.0 0.0 0.00 0.00 0.00 91 1008.5
20260506015737 56 248 0.0 0.0 0.00 0.00 0.00 91 1008.5
20260506014737 56 248 0.0 0.0 0.00 0.00 0.00 91 1008.8
20260506013735 56 158 0.0 0.0 0.00 0.00 0.00 91 1009.1
20260506012735 56 158 0.0 0.0 0.00 0.00 0.00 91 1008.8
20260506011734 56 270 0.0 0.0 0.00 0.00 0.00 91 1008.8
20260506010733 56 293 0.0 0.0 0.00 0.00 0.00 91 1009.1
20260506005732 56 293 0.0 0.0 0.00 0.00 0.00 91 1009.1
20260506004731 57 293 0.0 0.0 0.00 0.00 0.00 90 1009.1
20260506003659 57 338 0.0 0.0 0.00 0.00 0.00 90 1009.5
20260506002658 57 135 0.0 0.0 0.00 0.00 0.00 90 1009.1
20260506001657 57 180 0.0 0.0 0.00 0.00 0.00 90 1009.5
20260506000656 57 158 0.0 0.9 0.00 0.00 0.00 90 1010.2
20260505235655 57 270 0.9 3.5 0.00 0.00 0.00 90 1010.5
20260505234654 57 270 3.5 3.5 0.00 0.00 0.00 90 1010.5
20260505233653 57 248 0.0 0.0 0.00 0.00 0.00 90 1010.2
20260505232448 57 225 0.0 0.0 0.00 0.00 0.00 89 1010.2
20260505231448 57 225 0.0 0.0 0.00 0.00 0.00 89 1010.2
20260505230447 57 225 0.0 0.0 0.00 0.00 0.00 89 1010.5
20260505225446 57 225 0.0 0.0 0.00 0.00 0.00 89 1010.2
20260505224414 57 225 0.0 0.0 0.00 0.00 0.00 89 1010.5
20260505223342 57 270 0.0 0.0 0.00 0.00 0.00 89 1010.5
20260505222342 57 270 0.0 0.0 0.00 0.00 0.00 89 1010.8
20260505221239 57 270 0.0 0.0 0.00 0.00 0.00 89 1011.2
20260505220238 57 270 0.0 0.0 0.00 0.00 0.00 89 1011.2
20260505215238 57 270 0.0 0.0 0.00 0.00 0.00 89 1011.5
20260505214237 56 248 0.0 0.0 0.00 0.00 0.00 89 1011.5
20260505213237 56 248 0.0 0.0 0.00 0.00 0.00 89 1011.5
20260505212236 56 270 0.0 0.0 0.00 0.00 0.00 89 1011.5
20260505211235 56 338 0.0 0.0 0.00 0.00 0.00 89 1011.5
20260505210235 56 338 0.0 0.0 0.00 0.00 0.00 89 1011.5
20260505205234 55 338 0.0 0.0 0.00 0.00 0.00 89 1011.9
20260505204233 55 338 0.0 0.0 0.00 0.00 0.00 89 1011.9
20260505203232 55 248 0.0 0.0 0.00 0.00 0.00 88 1011.9
20260505202231 55 270 0.0 0.0 0.00 0.00 0.00 88 1011.9
20260505201159 55 270 0.0 0.0 0.00 0.00 0.00 88 1011.9
20260505200159 55 270 0.0 0.0 0.00 0.00 0.00 88 1011.9
20260505195158 55 270 0.0 0.0 0.00 0.00 0.00 88 1011.9
20260505194157 55 270 0.0 0.0 0.00 0.00 0.00 87 1011.5
20260505193157 55 270 0.0 0.0 0.00 0.00 0.00 87 1011.5
20260505192155 55 270 0.0 0.0 0.00 0.00 0.00 86 1011.5
20260505191154 56 270 0.0 0.0 0.00 0.00 0.00 86 1011.5
20260505190122 56 270 0.0 0.0 0.00 0.00 0.00 85 1011.2
20260505185122 57 270 0.0 0.0 0.00 0.00 0.00 85 1011.2
20260505184121 57 270 0.0 0.0 0.00 0.00 0.00 84 1011.2
20260505183120 58 270 0.0 0.0 0.00 0.00 0.00 84 1011.2
20260505182119 58 293 0.0 0.0 0.00 0.00 0.00 83 1011.2
20260505181046 59 293 0.0 0.0 0.00 0.00 0.00 82 1011.2
20260505180046 60 293 0.0 0.0 0.00 0.00 0.00 81 1011.5
20260505175045 60 293 0.0 0.0 0.00 0.00 0.00 80 1011.5
20260505174044 61 315 0.0 0.0 0.00 0.00 0.00 78 1011.5
20260505173012 62 180 0.0 0.0 0.00 0.00 0.00 78 1011.5
20260505172011 62 180 0.0 0.0 0.00 0.00 0.00 77 1011.2
20260505171010 63 203 0.0 0.0 0.00 0.00 0.00 76 1011.5
20260505170009 63 203 0.0 0.0 0.00 0.00 0.00 75 1011.5
20260505165008 63 203 0.0 0.0 0.00 0.00 0.00 74 1011.5
20260505164007 63 225 0.0 0.0 0.00 0.00 0.00 73 1011.5
20260505163007 64 113 0.0 0.0 0.00 0.00 0.00 72 1011.5
20260505162005 64 113 0.0 0.0 0.00 0.00 0.00 72 1011.5
20260505161004 64 68 0.0 0.0 0.00 0.00 0.00 71 1011.5
20260505152959 64 158 0.0 0.0 0.00 0.00 0.00 74 1011.5
20260505151958 64 203 0.0 0.0 0.00 0.00 0.00 75 1011.5
20260505150957 64 135 0.0 0.0 0.00 0.00 0.00 75 1011.9
20260505124812 63 135 0.0 0.0 0.00 0.00 0.00 77 1012.2
20260505123812 63 248 0.0 0.0 0.00 0.00 0.00 77 1012.2
20260505122740 63 180 0.0 0.0 0.00 0.00 0.00 77 1012.2
20260505121739 63 180 0.0 0.0 0.00 0.00 0.00 77 1012.2
20260505120738 63 90 0.0 0.0 0.00 0.00 0.00 77 1012.2
20260505115737 63 113 0.0 0.0 0.00 0.00 0.00 78 1012.2
20260505114736 62 113 0.0 0.0 0.00 0.00 0.00 78 1012.2
20260505113705 62 113 0.0 0.0 0.00 0.00 0.00 78 1012.2
20260505112703 62 180 0.0 0.0 0.00 0.00 0.00 80 1012.2
20260505111702 62 158 0.0 0.0 0.00 0.00 0.00 81 1012.2
20260505110701 62 113 0.0 0.0 0.00 0.00 0.00 82 1012.2